Regional Weather Roundup
Issued by NWS

Home | Current Version | Previous Version | Text Only | Print | Product List | Glossary Off
Versions: 1 2 3 4 5 6 7 8 9 10 11 12 13 14 15 16 17 18 19 20 21 22 23 24 25 26 27 28 29 30 31 32 33 34 35 36 37 38 39 40 41 42 43 44 45 46 47 48 49 50

000
ASUS45 KCYS 272310
RWRWY

WYOMING REGIONAL WEATHER ROUNDUP
NATIONAL WEATHER SERVICE CHEYENNE WY
500 PM MDT FRI MAR 27 2015

NOTE:  "FAIR" INDICATES FEW OR NO CLOUDS BELOW 12,000 FEET
WITH NO SIGNIFICANT WEATHER AND/OR OBSTRUCTIONS TO VISIBILITY.

WYZ001-280000-
YELLOWSTONE NATIONAL PARK

CITY           SKY/WX    TMP DP  RH WIND       PRES   REMARKS
LK YELLOWSTONE   N/A     53  25  33 W13G18    30.26F
W YELLOWSTONE  NOT AVBL

$$
WYZ002>013-054>058-071-098>099-280000-
NORTHERN WYOMING

CITY           SKY/WX    TMP DP  RH WIND       PRES   REMARKS
JACKSON        SUNNY     57  30  35 SW9       30.22F
CODY           FAIR      70  27  19 W14G22    30.05F
GREYBULL       FAIR      72  28  19 VRB5      30.00F
WORLAND        FAIR      72  29  20 N5        30.01F
SHERIDAN       FAIR      72  28  19 NW23      29.97F
BUFFALO        FAIR      68  27  21 NW16G30   30.03S
GILLETTE       FAIR      67  31  26 N16G28    29.98F
HULETT         FAIR      64  32  29 NW13G22   29.99S
NEWCASTLE      FAIR      64  30  27 NW22G29   29.98F

$$
WYZ014>020-022>026-101>103-280000-
CENTRAL WYOMING

CITY           SKY/WX    TMP DP  RH WIND       PRES   REMARKS
BIG PINEY      FAIR      64  24  21 N10       30.23F
PINEDALE       FAIR      57  30  35 NW10      30.25F
DUBOIS         FAIR      59  23  25 W20       30.19F
LANDER         FAIR      70  24  17 NW20      30.06S
RIVERTON       FAIR      72  22  15 NW28G35   30.07S
CASPER         FAIR      67  27  22 NW17G26   30.07F
DOUGLAS        FAIR      70  24  17 NW22G31   30.03S

$$
WYZ021-027>030-104>119-280000-
SOUTHERN WYOMING

CITY           SKY/WX    TMP DP  RH WIND       PRES   REMARKS
EVANSTON       FAIR      63  28  26 W14       30.26F
KEMMERER       FAIR      61  30  31 NW15      30.26F
FORT BRIDGER   FAIR      67  26  21 W12G22    30.27F
ROCK SPRINGS   PTSUNNY   64  24  21 W10G26    30.20F
DIXON          FAIR      66  23  19 W10G17    30.21F
RAWLINS        FAIR      65  20  17 W21       30.16F
SARATOGA       MOCLDY    64  23  20 W18       30.19F
LARAMIE        PTSUNNY   60  23  24 NW29G36   30.15S
CHEYENNE       FAIR      64  25  22 NW23G33   30.09S
TORRINGTON     PTSUNNY   71  28  20 W15       29.97F
PINE BLUFFS    CLOUDY    64  30  27 N8        30.05S

$$



USA.gov is the U.S. government's official web portal to all federal, state and local government web resources and services.